Regional Weather Roundup
Issued by NWS

Home | Current Version | Previous Version | Text Only | Print | Product List | Glossary On
Versions: 1 2 3 4 5 6 7 8 9 10 11 12 13 14 15 16 17 18 19 20 21 22 23 24 25 26 27 28 29 30 31 32 33 34 35 36 37 38 39 40 41 42 43 44 45 46 47 48 49 50
000
ASUS43 KLMK 261102
RWRKY
KENTUCKY REGIONAL WEATHER ROUNDUP
NATIONAL WEATHER SERVICE LOUISVILLE KY
700 AM EDT SAT MAY 26 2018

NOTE "FAIR" INDICATES FEW OR NO CLOUDS BELOW 12,000 FEET
WITH NO SIGNIFICANT WEATHER AND/OR OBSTRUCTIONS TO VISIBILITY.

KYZ001>023-026-027-061>063-070>075-261200-
WESTERN AND SOUTH CENTRAL KENTUCKY

CITY           SKY/WX    TMP DP  RH WIND       PRES   REMARKS
PADUCAH        FAIR      70  68  93 S7        29.85R
HENDERSON      NOT AVBL
OWENSBORO      MOCLDY    71  69  93 S8        29.88R
HOPKINSVILLE   MOCLDY    69  69 100 S5        29.89R
BOWLING GREEN  FAIR      70  67  90 S6        29.91R
GLASGOW        NOT AVBL
$$

KYZ024-025-028>034-038-045-046-053-261200-
NORTH CENTRAL KENTUCKY

CITY           SKY/WX    TMP DP  RH WIND       PRES   REMARKS
LOUISVILLE/SDF MOCLDY    73  67  81 SW7       29.87R
LOUISVILLE/LOU FAIR      71  68  90 S6        29.88R
FORT KNOX      FAIR      69  69 100 SW3       29.89R
$$

KYZ035>037-039>044-047>052-055>060-089>105-261200-
NORTHEAST KENTUCKY

CITY           SKY/WX    TMP DP  RH WIND       PRES   REMARKS
LEXINGTON      FAIR      68  65  90 S3        29.91R
COVINGTON      MOCLDY    67  62  84 S7        29.87R
FRANKFORT      FAIR      67  63  87 SW5       29.88R
$$

KYZ054-064>069-076>088-106>120-261200-
SOUTHEAST KENTUCKY

CITY           SKY/WX    TMP DP  RH WIND       PRES   REMARKS
JACKSON        FAIR      69  66  90 CALM      29.93S
LONDON         FAIR      68  66  93 CALM      29.94R
SOMERSET       NOT AVBL
MIDDLESBORO    CLOUDY    68  68 100 CALM      29.96R
MONTICELLO     FAIR      65  64  97 N8        29.95R
$$




USA.gov is the U.S. government's official web portal to all federal, state and local government web resources and services.